TimeCDT,TemperatureF,Dew PointF,Humidity,Sea Level PressureIn,VisibilityMPH,Wind Direction,Wind SpeedMPH,Gust SpeedMPH,PrecipitationIn,Events,Conditions,WindDirDegrees,DateUTC
12:53 AM,45.0,35.1,68,30.22,10.0,ENE,5.8,-,N/A,,Overcast,60,2013-04-17 05:53:00
1:53 AM,44.1,35.1,71,30.21,10.0,ENE,8.1,-,N/A,,Overcast,60,2013-04-17 06:53:00
2:53 AM,44.1,34.0,68,30.17,10.0,ENE,9.2,-,N/A,,Overcast,60,2013-04-17 07:53:00
3:53 AM,44.1,34.0,68,30.14,10.0,ENE,6.9,-,N/A,,Overcast,60,2013-04-17 08:53:00
4:53 AM,44.1,34.0,68,30.13,10.0,East,10.4,-,N/A,,Overcast,80,2013-04-17 09:53:00
5:16 AM,42.8,35.6,76,30.09,3.0,East,9.2,-,0.14,Rain-Thunderstorm,Thunderstorms and Rain,80,2013-04-17 10:16:00
5:53 AM,42.1,37.9,85,30.10,10.0,East,10.4,-,0.17,Thunderstorm,Overcast,100,2013-04-17 10:53:00
6:04 AM,42.8,37.4,81,30.04,10.0,East,13.8,21.9,0.00,Rain,Light Rain,100,2013-04-17 11:04:00
6:53 AM,43.0,39.9,89,30.06,8.0,East,11.5,-,0.00,,Mostly Cloudy,90,2013-04-17 11:53:00
7:05 AM,42.8,39.2,87,30.08,6.0,ESE,15.0,21.9,N/A,,Overcast,110,2013-04-17 12:05:00
7:23 AM,42.8,39.2,87,30.08,6.0,East,15.0,25.3,N/A,,Overcast,100,2013-04-17 12:23:00
7:35 AM,42.8,39.2,87,30.06,7.0,East,15.0,24.2,0.02,,Mostly Cloudy,90,2013-04-17 12:35:00
7:53 AM,42.1,37.9,85,30.07,8.0,East,15.0,21.9,0.02,,Mostly Cloudy,80,2013-04-17 12:53:00
8:03 AM,42.8,37.4,81,30.08,7.0,East,13.8,-,0.00,Rain-Thunderstorm,Light Rain,100,2013-04-17 13:03:00
8:18 AM,42.8,39.2,87,30.10,2.0,East,12.7,-,0.13,Rain-Thunderstorm,Heavy Rain,100,2013-04-17 13:18:00
8:22 AM,41.0,39.2,93,30.07,1.2,East,15.0,-,0.20,Rain-Thunderstorm,Heavy Rain,90,2013-04-17 13:22:00
8:48 AM,41.0,39.2,93,30.04,1.8,East,15.0,20.7,0.38,Rain,Rain,80,2013-04-17 13:48:00
8:59 AM,41.0,39.2,93,30.05,3.0,ENE,10.4,21.9,0.02,Rain-Thunderstorm,Rain,60,2013-04-17 13:59:00
9:10 AM,41.0,39.2,93,30.08,2.5,Variable,6.9,-,0.06,Rain-Thunderstorm,Rain,0,2013-04-17 14:10:00
9:17 AM,41.0,39.2,93,30.09,1.8,ENE,4.6,-,0.10,Rain-Thunderstorm,Heavy Rain,70,2013-04-17 14:17:00
9:27 AM,39.2,39.2,100,30.11,1.8,East,3.5,-,0.16,Rain,Rain,80,2013-04-17 14:27:00
9:34 AM,39.2,39.2,100,30.10,1.5,ENE,4.6,-,0.20,Rain-Thunderstorm,Rain,70,2013-04-17 14:34:00
9:53 AM,39.9,39.9,100,30.12,1.2,Calm,Calm,-,0.33,Rain-Thunderstorm,Heavy Rain,0,2013-04-17 14:53:00
10:01 AM,39.2,39.2,100,30.10,1.2,ENE,8.1,-,0.05,Rain,Heavy Rain,70,2013-04-17 15:01:00
10:14 AM,39.2,39.2,100,30.12,1.2,ESE,6.9,-,0.14,Rain-Thunderstorm,Heavy Rain,110,2013-04-17 15:14:00
10:25 AM,39.2,39.2,100,30.08,1.5,East,13.8,19.6,0.21,Rain-Thunderstorm,Rain,100,2013-04-17 15:25:00
10:33 AM,39.2,39.2,100,30.02,2.0,East,17.3,21.9,0.24,Rain,Rain,80,2013-04-17 15:33:00
10:45 AM,39.2,39.2,100,29.99,3.0,East,18.4,24.2,0.27,Rain-Thunderstorm,Light Rain,90,2013-04-17 15:45:00
10:53 AM,39.0,37.9,96,29.99,4.0,East,17.3,25.3,0.29,Rain-Thunderstorm,Light Rain,100,2013-04-17 15:53:00
11:15 AM,39.2,37.4,93,29.92,7.0,East,17.3,31.1,0.03,Rain,Light Rain,100,2013-04-17 16:15:00
11:22 AM,39.2,-9999,N/A,29.97,10.0,ESE,13.8,28.8,0.03,,Mostly Cloudy,120,2013-04-17 16:22:00
11:53 AM,39.9,37.9,93,29.93,10.0,NE,8.1,27.6,0.03,,Overcast,50,2013-04-17 16:53:00
12:53 PM,41.0,39.0,93,30.01,10.0,SSW,4.6,-,N/A,,Overcast,210,2013-04-17 17:53:00
1:53 PM,42.1,39.9,92,29.96,10.0,North,8.1,-,N/A,,Overcast,350,2013-04-17 18:53:00
2:00 PM,41.0,39.2,93,29.96,7.0,Variable,5.8,-,0.00,Rain-Thunderstorm,Light Rain,0,2013-04-17 19:00:00
2:12 PM,39.2,39.2,100,29.77,3.0,East,25.3,31.1,0.03,Rain-Thunderstorm,Heavy Thunderstorms and Rain,80,2013-04-17 19:12:00
2:26 PM,39.2,39.2,100,29.84,7.0,ENE,12.7,23.0,0.04,Rain-Thunderstorm,Light Thunderstorms and Rain,70,2013-04-17 19:26:00
2:33 PM,41.0,39.2,93,29.85,8.0,NNE,12.7,21.9,0.04,,Overcast,20,2013-04-17 19:33:00
2:53 PM,41.0,39.9,96,29.91,5.0,NNW,6.9,-,0.04,,Overcast,330,2013-04-17 19:53:00
3:53 PM,41.0,39.9,96,29.83,7.0,NE,15.0,19.6,0.02,Rain-Thunderstorm,Light Rain,40,2013-04-17 20:53:00
4:03 PM,41.0,41.0,100,29.84,8.0,NE,8.1,-,0.01,Rain,Light Rain,40,2013-04-17 21:03:00
4:10 PM,41.0,41.0,100,29.81,10.0,NNE,15.0,-,0.01,Rain,Light Rain,20,2013-04-17 21:10:00
4:53 PM,42.1,39.9,92,29.85,10.0,NE,10.4,-,0.03,Rain,Light Rain,40,2013-04-17 21:53:00
5:30 PM,41.0,39.2,93,29.79,9.0,NE,13.8,-,0.01,Rain-Thunderstorm,Light Rain,40,2013-04-17 22:30:00
5:41 PM,42.8,41.0,93,29.82,9.0,ENE,9.2,19.6,0.02,Rain-Thunderstorm,Light Rain,60,2013-04-17 22:41:00
5:53 PM,42.1,41.0,96,29.79,2.5,ENE,12.7,20.7,0.05,Rain,Heavy Rain,60,2013-04-17 22:53:00
6:06 PM,42.8,41.0,93,29.79,6.0,NNE,15.0,21.9,0.01,Rain,Light Rain,30,2013-04-17 23:06:00
6:28 PM,42.8,41.0,93,29.79,2.5,ENE,11.5,-,0.05,Rain-Thunderstorm,Rain,60,2013-04-17 23:28:00
6:39 PM,41.0,41.0,100,29.79,2.0,ENE,12.7,19.6,0.08,Rain,Rain,60,2013-04-17 23:39:00
6:49 PM,42.8,41.0,93,29.79,5.0,ENE,10.4,18.4,0.08,Rain-Thunderstorm,Light Rain,60,2013-04-17 23:49:00
6:53 PM,41.0,41.0,100,29.81,5.0,ENE,11.5,-,0.09,Rain-Thunderstorm,Light Rain,60,2013-04-17 23:53:00
7:08 PM,42.8,41.0,93,29.91,2.5,West,21.9,26.5,0.05,Rain-Thunderstorm,Rain,270,2013-04-18 00:08:00
7:17 PM,42.8,41.0,93,29.91,1.5,WNW,15.0,27.6,0.19,Rain,Heavy Rain,290,2013-04-18 00:17:00
7:23 PM,42.8,41.0,93,29.91,2.0,WNW,15.0,-,0.22,Rain,Rain,300,2013-04-18 00:23:00
7:33 PM,42.8,41.0,93,29.88,2.0,NNW,8.1,-,0.28,Rain-Thunderstorm,Heavy Rain,330,2013-04-18 00:33:00
7:46 PM,42.8,41.0,93,29.89,3.0,NNW,6.9,-,0.34,Rain-Thunderstorm,Thunderstorms and Rain,340,2013-04-18 00:46:00
7:53 PM,42.1,41.0,96,29.87,4.0,North,9.2,-,0.37,Rain-Thunderstorm,Thunderstorms and Rain,360,2013-04-18 00:53:00
8:10 PM,41.0,41.0,100,29.71,4.0,ENE,23.0,27.6,0.06,Rain,Light Rain,70,2013-04-18 01:10:00
8:29 PM,42.8,41.0,93,29.80,10.0,NNW,12.7,-,0.07,Rain,Light Rain,330,2013-04-18 01:29:00
8:53 PM,42.1,41.0,96,29.77,4.0,ENE,12.7,-,0.14,Rain,Rain,70,2013-04-18 01:53:00
9:14 PM,42.8,41.0,93,29.74,7.0,East,16.1,24.2,0.03,Rain-Thunderstorm,Light Rain,80,2013-04-18 02:14:00
9:29 PM,42.8,41.0,93,29.68,5.0,East,19.6,27.6,0.06,Rain,Rain,90,2013-04-18 02:29:00
9:40 PM,42.8,41.0,93,29.71,8.0,East,12.7,28.8,0.07,Rain-Thunderstorm,Light Rain,100,2013-04-18 02:40:00
9:53 PM,43.0,42.1,97,29.72,9.0,ESE,8.1,20.7,0.08,Rain-Thunderstorm,Light Thunderstorms and Rain,110,2013-04-18 02:53:00
10:05 PM,42.8,42.8,100,29.64,7.0,ENE,13.8,21.9,0.01,Rain,Light Rain,60,2013-04-18 03:05:00
10:33 PM,42.8,42.8,100,29.72,10.0,NW,20.7,-,0.02,,Overcast,320,2013-04-18 03:33:00
10:53 PM,42.1,41.0,96,29.74,10.0,NNW,15.0,-,0.02,,Overcast,340,2013-04-18 03:53:00
11:53 PM,42.1,39.9,92,29.73,9.0,NNW,16.1,24.2,N/A,,Overcast,340,2013-04-18 04:53:00